When you browse on this site, cookies collect data to enhance your experience and personalize the content and advertising you see.
Visit our Privacy Policy to learn more. By continuing to use the site, you agree to this use of cookies and data.
EN

Hourly Weather Chatham

Today, 12 August, Wednesday

Time Temperature Precipitation Wind Pressure Humidity
00:00 +23°C° 0.1 mm 1 mps 751 mmHg 72%
01:00 +23°C° 0 mm 1 mps 751 mmHg 72%
02:00 +22°C° 0 mm 1 mps 751 mmHg 73%
03:00 +20°C° 0 mm 0 mps 751 mmHg 74%
04:00 +23°C° 0 mm 1 mps 751 mmHg 73%
05:00 +23°C° 0 mm 1 mps 751 mmHg 73%
06:00 +24°C° 0 mm 1 mps 751 mmHg 72%
07:00 +26°C° 0 mm 1 mps 751 mmHg 66%
08:00 +28°C° 0 mm 2 mps 751 mmHg 60%
09:00 +29°C° 0 mm 2 mps 751 mmHg 53%
10:00 +30°C° 0 mm 3 mps 751 mmHg 51%
11:00 +32°C° 0 mm 4 mps 751 mmHg 49%
12:00 +33°C° 0 mm 4 mps 751 mmHg 47%
13:00 +33°C° 0.2 mm 4 mps 751 mmHg 47%
14:00 +33°C° 0.2 mm 4 mps 750 mmHg 46%
15:00 +33°C° 0.2 mm 4 mps 750 mmHg 46%
16:00 +32°C° 0.3 mm 4 mps 750 mmHg 50%
17:00 +29°C° 0.3 mm 4 mps 749 mmHg 53%
18:00 +28°C° 0.3 mm 4 mps 749 mmHg 57%
19:00 +26°C° 0.8 mm 4 mps 749 mmHg 65%
20:00 +25°C° 0.8 mm 3 mps 749 mmHg 73%
21:00 +23°C° 0.8 mm 2 mps 749 mmHg 80%
22:00 +23°C° 0.5 mm 2 mps 749 mmHg 82%
23:00 +23°C° 0.5 mm 1 mps 749 mmHg 84%

Tomorrow, 13 August, Thursday

Time Temperature Precipitation Wind Pressure Humidity
00:00 +22°C° 0.5 mm 1 mps 749 mmHg 86%
01:00 +22°C° 0.3 mm 1 mps 749 mmHg 87%
02:00 +22°C° 0.3 mm 1 mps 749 mmHg 87%
03:00 +22°C° 0.3 mm 1 mps 749 mmHg 88%
04:00 +22°C° 0.4 mm 1 mps 749 mmHg 88%
05:00 +22°C° 0.4 mm 1 mps 749 mmHg 88%
06:00 +21°C° 0.4 mm 2 mps 749 mmHg 88%
07:00 +23°C° 0 mm 2 mps 749 mmHg 83%
08:00 +24°C° 0 mm 2 mps 749 mmHg 78%
09:00 +25°C° 0 mm 3 mps 750 mmHg 73%
10:00 +26°C° 0 mm 3 mps 750 mmHg 69%
11:00 +27°C° 0 mm 3 mps 750 mmHg 64%
12:00 +28°C° 0 mm 4 mps 750 mmHg 59%
13:00 +28°C° 0 mm 4 mps 750 mmHg 56%
14:00 +28°C° 0 mm 4 mps 750 mmHg 54%
15:00 +29°C° 0 mm 4 mps 750 mmHg 51%
16:00 +28°C° 0 mm 3 mps 750 mmHg 54%
17:00 +27°C° 0 mm 3 mps 749 mmHg 56%
18:00 +26°C° 0 mm 3 mps 749 mmHg 59%
19:00 +25°C° 0 mm 3 mps 749 mmHg 63%
20:00 +24°C° 0 mm 2 mps 750 mmHg 68%
21:00 +21°C° 0 mm 2 mps 750 mmHg 73%
22:00 +21°C° 0 mm 2 mps 750 mmHg 74%
23:00 +21°C° 0 mm 2 mps 750 mmHg 75%

Day after tomorrow, 14 August, Friday

Time Temperature Precipitation Wind Pressure Humidity
00:00 +21°C° 0 mm 1 mps 750 mmHg 76%
01:00 +21°C° 0 mm 1 mps 750 mmHg 78%
02:00 +21°C° 0 mm 1 mps 750 mmHg 79%
03:00 +21°C° 0 mm 1 mps 750 mmHg 81%
04:00 +20°C° 0.1 mm 2 mps 750 mmHg 81%
05:00 +20°C° 0.1 mm 2 mps 750 mmHg 82%
06:00 +20°C° 0.1 mm 2 mps 750 mmHg 82%
07:00 +23°C° 0.1 mm 2 mps 750 mmHg 77%
08:00 +24°C° 0.1 mm 3 mps 750 mmHg 72%
09:00 +25°C° 0.1 mm 3 mps 751 mmHg 68%
10:00 +26°C° 0.5 mm 3 mps 751 mmHg 65%
11:00 +26°C° 0.5 mm 3 mps 751 mmHg 63%
12:00 +27°C° 0.5 mm 3 mps 751 mmHg 60%
13:00 +27°C° 0.9 mm 3 mps 751 mmHg 60%
14:00 +27°C° 0.9 mm 3 mps 751 mmHg 60%
15:00 +27°C° 0.9 mm 3 mps 751 mmHg 60%
16:00 +27°C° 1.3 mm 3 mps 751 mmHg 64%
17:00 +26°C° 1.3 mm 3 mps 751 mmHg 68%
18:00 +25°C° 1.3 mm 3 mps 751 mmHg 72%
19:00 +24°C° 0.6 mm 3 mps 752 mmHg 76%
20:00 +22°C° 0.6 mm 3 mps 752 mmHg 79%
21:00 +21°C° 0.6 mm 3 mps 752 mmHg 83%
22:00 +20°C° 0.1 mm 3 mps 752 mmHg 84%
23:00 +20°C° 0.1 mm 3 mps 752 mmHg 84%

15 August, Saturday

Time Temperature Precipitation Wind Pressure Humidity
00:00 +20°C° 0.1 mm 2 mps 752 mmHg 84%
01:00 +19°C° 0 mm 2 mps 752 mmHg 85%
02:00 +19°C° 0 mm 2 mps 752 mmHg 87%
03:00 +18°C° 0 mm 2 mps 752 mmHg 88%
04:00 +18°C° 0 mm 2 mps 752 mmHg 88%
05:00 +18°C° 0 mm 2 mps 752 mmHg 88%
06:00 +19°C° 0 mm 2 mps 752 mmHg 88%
07:00 +20°C° 0 mm 2 mps 752 mmHg 83%
08:00 +21°C° 0 mm 2 mps 753 mmHg 78%
09:00 +23°C° 0 mm 2 mps 753 mmHg 73%
10:00 +24°C° 0 mm 2 mps 753 mmHg 69%
11:00 +25°C° 0 mm 2 mps 753 mmHg 65%
12:00 +26°C° 0 mm 2 mps 752 mmHg 60%
13:00 +26°C° 0 mm 2 mps 752 mmHg 59%
14:00 +26°C° 0 mm 2 mps 752 mmHg 58%
15:00 +26°C° 0 mm 2 mps 752 mmHg 57%
16:00 +26°C° 0 mm 2 mps 752 mmHg 61%
17:00 +25°C° 0 mm 2 mps 751 mmHg 64%
18:00 +24°C° 0 mm 2 mps 751 mmHg 68%
19:00 +23°C° 0 mm 2 mps 751 mmHg 72%
20:00 +21°C° 0 mm 2 mps 751 mmHg 77%
21:00 +21°C° 0 mm 1 mps 751 mmHg 81%
22:00 +20°C° 0 mm 1 mps 751 mmHg 83%
23:00 +20°C° 0 mm 1 mps 751 mmHg 84%

16 August, Sunday

Time Temperature Precipitation Wind Pressure Humidity
00:00 +17°C° 0 mm 0 mps 751 mmHg 86%
01:00 +19°C° 0 mm 1 mps 751 mmHg 87%
02:00 +19°C° 0 mm 1 mps 750 mmHg 89%
03:00 +18°C° 0 mm 1 mps 750 mmHg 90%
04:00 +19°C° 0 mm 1 mps 750 mmHg 91%
05:00 +19°C° 0 mm 1 mps 750 mmHg 91%
06:00 +19°C° 0 mm 1 mps 750 mmHg 91%
07:00 +19°C° 0 mm 2 mps 750 mmHg 85%
08:00 +21°C° 0 mm 2 mps 750 mmHg 79%
09:00 +23°C° 0 mm 2 mps 750 mmHg 73%
10:00 +24°C° 0 mm 2 mps 749 mmHg 69%
11:00 +25°C° 0 mm 2 mps 749 mmHg 64%
12:00 +26°C° 0 mm 3 mps 748 mmHg 60%
13:00 +26°C° 0 mm 3 mps 748 mmHg 59%
14:00 +26°C° 0 mm 3 mps 748 mmHg 57%
15:00 +27°C° 0 mm 3 mps 747 mmHg 56%
16:00 +25°C° 0.2 mm 4 mps 747 mmHg 62%
17:00 +23°C° 0.2 mm 4 mps 746 mmHg 69%
18:00 +21°C° 0.2 mm 4 mps 746 mmHg 75%
19:00 +21°C° 0.5 mm 4 mps 746 mmHg 80%
20:00 +20°C° 0.5 mm 3 mps 746 mmHg 84%
21:00 +19°C° 0.5 mm 3 mps 746 mmHg 89%
22:00 +19°C° 0.3 mm 2 mps 745 mmHg 89%
23:00 +19°C° 0.3 mm 2 mps 745 mmHg 90%

17 August, Monday

Time Temperature Precipitation Wind Pressure Humidity
00:00 +20°C° 0.3 mm 1 mps 745 mmHg 90%
01:00 +18°C° 0.5 mm 2 mps 745 mmHg 91%
02:00 +18°C° 0.5 mm 3 mps 744 mmHg 91%
03:00 +18°C° 0.5 mm 3 mps 744 mmHg 92%
04:00 +18°C° 0.1 mm 4 mps 744 mmHg 90%
05:00 +17°C° 0.1 mm 4 mps 744 mmHg 89%
06:00 +17°C° 0.1 mm 4 mps 744 mmHg 87%
07:00 +18°C° 0 mm 4 mps 744 mmHg 84%
08:00 +19°C° 0 mm 5 mps 744 mmHg 80%
09:00 +20°C° 0 mm 6 mps 744 mmHg 77%
10:00 +20°C° 0.2 mm 6 mps 744 mmHg 74%
11:00 +21°C° 0.2 mm 6 mps 744 mmHg 72%
12:00 +21°C° 0.2 mm 6 mps 744 mmHg 69%
13:00 +21°C° 0.4 mm 6 mps 744 mmHg 70%
14:00 +20°C° 0.4 mm 6 mps 743 mmHg 70%
15:00 +20°C° 0.4 mm 6 mps 743 mmHg 71%
16:00 +19°C° 1.4 mm 6 mps 743 mmHg 77%
17:00 +17°C° 1.4 mm 6 mps 742 mmHg 83%
18:00 +16°C° 1.4 mm 5 mps 742 mmHg 90%
19:00 +16°C° 0.6 mm 6 mps 742 mmHg 89%
20:00 +16°C° 0.6 mm 6 mps 742 mmHg 89%
21:00 +16°C° 0.6 mm 6 mps 742 mmHg 89%
22:00 +16°C° 0.1 mm 6 mps 742 mmHg 89%
23:00 +16°C° 0.1 mm 7 mps 742 mmHg 89%
Show more